Home > Weather > Sheboygan > Past weeks

Flag for USA Weather for the Past 2 Weeks in Sheboygan, Wisconsin, USA

Now
58 °F

Sunny.


Feels Like: 56 °F
Forecast: 43 / 66 °F
Wind: 8 mph from Southwest

Location: Sheboygan County Memorial Airport

Current Time: May 6, 2016 at 8:28:07 AM

Latest Report: May 6, 2016 at 7:53 AM


Visibility: 10 mi

Pressure: 29.93 "Hg

Humidity: 56%

Dew Point: 42 °F

Location of SheboyganLocation

Historic Weather in Sheboygan — Graph

°F

Sheboygan Temperature Yesterday

Maximum temperature yesterday: 59 °F (at 3:53 PM)
Minimum temperature yesterday: 38 °F (at 2:53 AM)
Average temperature yesterday: 47 °F

High & Low Weather Summary for the Past Weeks

 TemperatureHumidityPressure
High68 °F (May 3, 12:53 PM)97% (Apr 22, 12:53 AM)30.27 "Hg (Apr 22, 12:53 AM)
Low34 °F (Apr 23, 4:53 AM)28% (May 3, 12:53 PM)29.58 "Hg (Apr 25, 5:04 PM)
Average46 °F73%29.98 "Hg
* Reported Apr 21 6:53 AM — May 6 6:53 AM, Sheboygan, Weather by CustomWeather, © 2016

Note: Actual official high and low records may vary slightly from our data, if they occured in-between our weather recording intervals... More about our weather records

Advertising

Sheboygan Weather History for the Previous 24 Hours

Scroll right to see more
 ConditionsComfort  
Time TempWeatherWind HumidityBarometerVisibility
6:53 AM
Fri, May 6
48 °FSunny.5 mph80%29.93 "Hg9 mi
5:53 AM45 °FClear.6 mph82%29.93 "Hg10 mi
4:53 AM48 °FPassing clouds.3 mph77%29.93 "Hg10 mi
3:53 AM50 °FOvercast.3 mph71%29.93 "Hg10 mi
2:53 AM46 °FPassing clouds.6 mph79%29.92 "Hg9 mi
1:53 AM46 °FPassing clouds.No wind79%29.95 "Hg10 mi
12:53 AM44 °FClear.6 mph79%29.95 "Hg10 mi
11:53 PM
Thu, May 5
42 °FClear.5 mph82%29.96 "Hg10 mi
10:53 PM43 °FClear.3 mph79%29.97 "Hg10 mi
9:53 PM44 °FClear.5 mph76%29.97 "Hg10 mi
8:53 PM45 °FSunny.7 mph76%29.97 "Hg10 mi
7:53 PM49 °FSunny.5 mph69%29.96 "Hg10 mi
6:53 PM54 °FSunny.5 mph57%29.97 "Hg10 mi
5:53 PM56 °FSunny.5 mph55%29.97 "Hg10 mi
4:53 PM57 °FSunny.6 mph55%29.98 "Hg10 mi
3:53 PM59 °FSunny.9 mph54%29.98 "Hg10 mi
2:53 PM58 °FSunny.8 mph58%29.99 "Hg10 mi
1:53 PM57 °FSunny.6 mph58%30.01 "Hg10 mi
12:53 PM56 °FSunny.9 mph62%30.02 "Hg10 mi
11:53 AM54 °FSunny.9 mph62%30.04 "Hg10 mi
10:53 AM53 °FSunny.9 mph59%30.04 "Hg10 mi
9:53 AM51 °FSunny.9 mph63%30.04 "Hg10 mi
8:53 AM47 °FSunny.8 mph69%30.04 "Hg10 mi
Weather by CustomWeather, © 2016

See weather overviewHow to use our weather pages